N614CB KBUR-KCRQ

Flight info

Callsign N614CB
Flight time 0h 38m
Altitude 8000
Route DCT OCN V23 POPPR DCT SMO DCT SILEX DCT
Aircraft SF50/L-V/N

Departure

Time 2026-05-04 00:55
Airport Hollywood Burbank/Bob Hope Airport (KBUR)

Arrival

Time 2026-05-04 01:34
Airport McClellan-Palomar Airport (KCRQ)
Time Latitude Longitude Altitude Speed Heading
2026-05-04 00:00 34.19682 -118.35218 714 ft 0 kts 178°
2026-05-04 00:22 34.19685 -118.35233 715 ft 0 kts 352°
2026-05-04 00:51 34.19710 -118.35261 716 ft 10 kts 282°
2026-05-04 00:51 34.19719 -118.35376 717 ft 17 kts 271°
2026-05-04 00:52 34.19721 -118.35554 719 ft 25 kts 271°
2026-05-04 00:52 34.19691 -118.35781 721 ft 30 kts 241°
2026-05-04 00:52 34.19680 -118.36006 721 ft 25 kts 271°
2026-05-04 00:52 34.19685 -118.36191 726 ft 20 kts 271°
2026-05-04 00:53 34.19687 -118.36344 730 ft 17 kts 269°
2026-05-04 00:53 34.19689 -118.36496 732 ft 21 kts 271°
2026-05-04 00:53 34.19690 -118.36691 737 ft 24 kts 271°
2026-05-04 00:53 34.19697 -118.36869 740 ft 12 kts 290°
2026-05-04 00:54 34.19711 -118.36891 741 ft 0 kts 326°
2026-05-04 00:54 34.19765 -118.36895 741 ft 19 kts 32°
2026-05-04 00:54 34.19791 -118.36735 736 ft 31 kts 91°
2026-05-04 00:55 34.19783 -118.36092 739 ft 119 kts 91°
2026-05-04 00:55 34.19739 -118.34947 1429 ft 138 kts 96°
2026-05-04 00:55 34.19390 -118.33868 2399 ft 150 kts 130°
2026-05-04 00:55 34.18591 -118.32795 2965 ft 179 kts 132°
2026-05-04 00:56 34.17804 -118.31700 3676 ft 175 kts 132°
2026-05-04 00:56 34.16993 -118.30580 4157 ft 178 kts 132°
2026-05-04 00:56 34.16266 -118.29372 4641 ft 180 kts 115°
2026-05-04 00:56 34.15867 -118.27906 4929 ft 194 kts 109°
2026-05-04 00:57 34.15373 -118.26292 4943 ft 215 kts 111°
2026-05-04 00:57 34.14830 -118.24540 4942 ft 229 kts 110°
2026-05-04 00:57 34.14285 -118.22720 4942 ft 235 kts 110°
2026-05-04 00:57 34.13733 -118.20872 4938 ft 232 kts 110°
2026-05-04 00:58 34.13182 -118.19042 4938 ft 231 kts 110°
2026-05-04 00:58 34.12634 -118.17218 4938 ft 231 kts 110°
2026-05-04 00:58 34.12085 -118.15395 4937 ft 231 kts 110°
2026-05-04 00:58 34.11539 -118.13577 4937 ft 230 kts 110°
2026-05-04 00:59 34.10993 -118.11761 4936 ft 230 kts 110°
2026-05-04 00:59 34.10445 -118.09948 4936 ft 230 kts 110°
2026-05-04 00:59 34.09796 -118.08192 4929 ft 229 kts 123°
2026-05-04 00:59 34.08726 -118.06783 4927 ft 227 kts 139°
2026-05-04 01:00 34.07546 -118.05512 4926 ft 228 kts 139°
2026-05-04 01:00 34.06379 -118.04220 4927 ft 228 kts 138°
2026-05-04 01:00 34.05278 -118.02997 4927 ft 228 kts 138°
2026-05-04 01:00 34.04109 -118.01704 4927 ft 228 kts 138°
2026-05-04 01:01 34.02951 -118.00425 4927 ft 229 kts 138°
2026-05-04 01:01 34.01762 -117.99112 4926 ft 228 kts 138°
2026-05-04 01:01 34.00608 -117.97836 4929 ft 229 kts 138°
2026-05-04 01:01 33.99434 -117.96539 4927 ft 229 kts 138°
2026-05-04 01:02 33.98260 -117.95242 4927 ft 229 kts 138°
2026-05-04 01:02 33.97086 -117.93949 4927 ft 229 kts 138°
2026-05-04 01:02 33.95912 -117.92651 4926 ft 229 kts 138°
2026-05-04 01:02 33.94740 -117.91357 4928 ft 229 kts 138°
2026-05-04 01:03 33.93563 -117.90062 4928 ft 229 kts 139°
2026-05-04 01:03 33.92388 -117.88769 4928 ft 229 kts 138°
2026-05-04 01:03 33.91210 -117.87471 4928 ft 229 kts 138°
2026-05-04 01:03 33.90037 -117.86181 4928 ft 229 kts 138°
2026-05-04 01:04 33.88877 -117.84904 4927 ft 229 kts 138°
2026-05-04 01:04 33.87702 -117.83612 4927 ft 229 kts 138°
2026-05-04 01:04 33.86527 -117.82321 4927 ft 228 kts 139°
2026-05-04 01:04 33.85353 -117.81029 4928 ft 229 kts 138°
2026-05-04 01:05 33.84177 -117.79735 4929 ft 229 kts 138°
2026-05-04 01:05 33.82998 -117.78442 4929 ft 229 kts 139°
2026-05-04 01:05 33.81822 -117.77151 4928 ft 229 kts 139°
2026-05-04 01:05 33.80645 -117.75857 4928 ft 229 kts 139°
2026-05-04 01:06 33.79468 -117.74565 4928 ft 229 kts 139°
2026-05-04 01:06 33.78292 -117.73275 4929 ft 229 kts 139°
2026-05-04 01:06 33.77116 -117.71986 4929 ft 228 kts 139°
2026-05-04 01:06 33.75944 -117.70704 4928 ft 228 kts 139°
2026-05-04 01:07 33.74770 -117.69417 4927 ft 227 kts 139°
2026-05-04 01:07 33.73381 -117.68600 4924 ft 222 kts 170°
2026-05-04 01:07 33.71884 -117.68133 4925 ft 223 kts 162°
2026-05-04 01:07 33.70436 -117.67510 4929 ft 225 kts 161°
2026-05-04 01:08 33.68961 -117.66863 4931 ft 226 kts 161°
2026-05-04 01:08 33.67475 -117.66213 4931 ft 227 kts 161°
2026-05-04 01:08 33.65995 -117.65566 4931 ft 227 kts 161°
2026-05-04 01:08 33.64509 -117.64918 4932 ft 227 kts 161°
2026-05-04 01:09 33.63024 -117.64269 4932 ft 227 kts 161°
2026-05-04 01:09 33.61539 -117.63619 4932 ft 227 kts 161°
2026-05-04 01:09 33.60053 -117.62971 4932 ft 227 kts 161°
2026-05-04 01:09 33.58555 -117.62413 4923 ft 225 kts 174°
2026-05-04 01:10 33.57013 -117.62552 4924 ft 222 kts 191°
2026-05-04 01:10 33.55485 -117.62873 4927 ft 224 kts 191°
2026-05-04 01:10 33.53950 -117.63200 4929 ft 224 kts 191°
2026-05-04 01:10 33.52411 -117.63525 4926 ft 225 kts 191°
2026-05-04 01:11 33.50897 -117.63847 4926 ft 224 kts 191°
2026-05-04 01:11 33.49357 -117.64174 4927 ft 225 kts 191°
2026-05-04 01:11 33.47819 -117.64499 4926 ft 224 kts 191°
2026-05-04 01:11 33.46284 -117.64818 4927 ft 224 kts 191°
2026-05-04 01:12 33.44748 -117.65144 4927 ft 224 kts 191°
2026-05-04 01:12 33.43209 -117.65471 4926 ft 224 kts 191°
2026-05-04 01:12 33.41672 -117.65798 4926 ft 224 kts 191°
2026-05-04 01:12 33.40135 -117.66125 4926 ft 224 kts 191°
2026-05-04 01:13 33.38595 -117.66453 4926 ft 224 kts 191°
2026-05-04 01:13 33.37058 -117.66781 4927 ft 224 kts 191°
2026-05-04 01:13 33.35520 -117.67112 4927 ft 224 kts 191°
2026-05-04 01:13 33.33983 -117.67403 4921 ft 223 kts 184°
2026-05-04 01:14 33.32535 -117.66800 4919 ft 227 kts 141°
2026-05-04 01:14 33.31803 -117.65186 4920 ft 229 kts 99°
2026-05-04 01:14 33.31749 -117.63300 4927 ft 228 kts 91°
2026-05-04 01:14 33.31590 -117.61415 4925 ft 228 kts 102°
2026-05-04 01:15 33.31046 -117.59638 4922 ft 228 kts 116°
2026-05-04 01:15 33.30313 -117.57955 4924 ft 228 kts 117°
2026-05-04 01:15 33.29624 -117.56236 4924 ft 229 kts 115°
2026-05-04 01:15 33.28973 -117.54493 4924 ft 230 kts 115°
2026-05-04 01:16 33.28308 -117.52753 4924 ft 230 kts 115°
2026-05-04 01:16 33.27639 -117.51018 4924 ft 230 kts 115°
2026-05-04 01:16 33.26970 -117.49279 4924 ft 230 kts 115°
2026-05-04 01:16 33.26307 -117.47560 4924 ft 230 kts 115°
2026-05-04 01:17 33.25638 -117.45820 4924 ft 230 kts 115°
2026-05-04 01:17 33.24967 -117.44083 4924 ft 230 kts 115°
2026-05-04 01:17 33.24301 -117.42349 4925 ft 230 kts 115°
2026-05-04 01:17 33.23636 -117.40619 4924 ft 230 kts 115°
2026-05-04 01:18 33.22964 -117.38873 4924 ft 230 kts 115°
2026-05-04 01:18 33.22291 -117.37135 4924 ft 230 kts 115°
2026-05-04 01:18 33.21628 -117.35401 4924 ft 229 kts 115°
2026-05-04 01:18 33.20974 -117.33698 4922 ft 229 kts 115°
2026-05-04 01:19 33.20294 -117.31947 4923 ft 229 kts 115°
2026-05-04 01:19 33.19624 -117.30221 4922 ft 227 kts 116°
2026-05-04 01:19 33.18881 -117.28578 4921 ft 225 kts 107°
2026-05-04 01:19 33.18952 -117.26757 4926 ft 225 kts 75°
2026-05-04 01:20 33.19404 -117.24963 4930 ft 226 kts 72°
2026-05-04 01:20 33.19868 -117.23161 4932 ft 228 kts 72°
2026-05-04 01:20 33.20248 -117.21331 4918 ft 228 kts 86°
2026-05-04 01:20 33.19895 -117.19510 4924 ft 226 kts 111°
2026-05-04 01:21 33.19339 -117.17759 4920 ft 224 kts 115°
2026-05-04 01:21 33.18275 -117.16437 4921 ft 222 kts 149°
2026-05-04 01:21 33.17229 -117.15119 4922 ft 225 kts 115°
2026-05-04 01:21 33.17167 -117.13307 4918 ft 218 kts 71°
2026-05-04 01:22 33.17924 -117.11806 4925 ft 208 kts 52°
2026-05-04 01:22 33.18812 -117.10471 4923 ft 203 kts 50°
2026-05-04 01:22 33.19687 -117.09160 4924 ft 200 kts 51°
2026-05-04 01:22 33.20552 -117.07860 4923 ft 199 kts 51°
2026-05-04 01:23 33.21411 -117.06568 4923 ft 198 kts 51°
2026-05-04 01:23 33.22272 -117.05285 4924 ft 198 kts 50°
2026-05-04 01:23 33.23124 -117.04002 4924 ft 197 kts 51°
2026-05-04 01:23 33.23977 -117.02719 4923 ft 197 kts 51°
2026-05-04 01:24 33.24826 -117.01438 4924 ft 197 kts 51°
2026-05-04 01:24 33.25676 -117.00157 4923 ft 197 kts 51°
2026-05-04 01:24 33.26408 -116.98819 4918 ft 196 kts 71°
2026-05-04 01:24 33.26278 -116.97241 4922 ft 196 kts 120°
2026-05-04 01:25 33.25229 -116.96288 4920 ft 192 kts 167°
2026-05-04 01:25 33.23917 -116.96251 4926 ft 189 kts 193°
2026-05-04 01:25 33.22776 -116.96977 4925 ft 186 kts 219°
2026-05-04 01:25 33.21694 -116.97828 4925 ft 187 kts 209°
2026-05-04 01:26 33.20504 -116.98475 4925 ft 189 kts 205°
2026-05-04 01:26 33.19300 -116.99109 4928 ft 190 kts 205°
2026-05-04 01:26 33.18145 -116.99863 4925 ft 189 kts 220°
2026-05-04 01:26 33.17323 -117.01043 4920 ft 180 kts 240°
2026-05-04 01:27 33.16906 -117.02410 4785 ft 175 kts 259°
2026-05-04 01:27 33.16706 -117.03828 4571 ft 164 kts 260°
2026-05-04 01:27 33.16505 -117.05050 4362 ft 140 kts 259°
2026-05-04 01:27 33.16328 -117.06141 4179 ft 128 kts 259°
2026-05-04 01:28 33.16167 -117.07155 4016 ft 121 kts 259°
2026-05-04 01:28 33.16012 -117.08129 3860 ft 118 kts 259°
2026-05-04 01:28 33.15861 -117.09069 3712 ft 115 kts 259°
2026-05-04 01:28 33.15713 -117.10004 3556 ft 113 kts 259°
2026-05-04 01:29 33.15566 -117.10921 3406 ft 112 kts 259°
2026-05-04 01:29 33.15421 -117.11830 3255 ft 112 kts 259°
2026-05-04 01:29 33.15272 -117.12754 3078 ft 114 kts 259°
2026-05-04 01:29 33.15123 -117.13692 2893 ft 115 kts 259°
2026-05-04 01:30 33.14971 -117.14635 2711 ft 117 kts 259°
2026-05-04 01:30 33.14817 -117.15590 2525 ft 117 kts 260°
2026-05-04 01:30 33.14665 -117.16549 2336 ft 117 kts 259°
2026-05-04 01:30 33.14513 -117.17497 2154 ft 115 kts 259°
2026-05-04 01:31 33.14362 -117.18436 1972 ft 115 kts 259°
2026-05-04 01:31 33.14214 -117.19360 1793 ft 115 kts 259°
2026-05-04 01:31 33.14064 -117.20290 1610 ft 113 kts 259°
2026-05-04 01:31 33.13916 -117.21216 1435 ft 113 kts 259°
2026-05-04 01:32 33.13768 -117.22142 1262 ft 115 kts 259°
2026-05-04 01:32 33.13621 -117.23037 1228 ft 105 kts 259°
2026-05-04 01:32 33.13486 -117.23860 1192 ft 99 kts 258°
2026-05-04 01:32 33.13332 -117.24685 993 ft 102 kts 257°
2026-05-04 01:33 33.13193 -117.25490 831 ft 97 kts 261°
2026-05-04 01:33 33.13098 -117.26244 686 ft 85 kts 259°
2026-05-04 01:33 33.12999 -117.26874 482 ft 73 kts 259°
2026-05-04 01:33 33.12910 -117.27423 331 ft 58 kts 258°
2026-05-04 01:34 33.12865 -117.27741 326 ft 26 kts 262°
2026-05-04 01:34 33.12817 -117.27913 327 ft 19 kts 229°
2026-05-04 01:34 33.12760 -117.27951 326 ft 0 kts 131°
2026-05-04 01:35 33.12756 -117.27943 326 ft 7 kts 108°
2026-05-04 01:35 33.12768 -117.27851 325 ft 17 kts 82°
2026-05-04 01:35 33.12781 -117.27772 324 ft 9 kts 78°
2026-05-04 01:36 33.12799 -117.27671 325 ft 14 kts 78°
2026-05-04 01:36 33.12764 -117.27632 325 ft 4 kts 219°
2026-05-04 01:36 33.12760 -117.27640 325 ft 0 kts 256°